Regional Weather Roundup
Issued by NWS Jackson, KY

Home | Current Version | Previous Version | Text Only | Print | Product List | Glossary On
Versions: 1 2 3 4 5 6 7 8 9 10 11 12 13 14 15 16 17 18 19 20 21 22 23 24 25 26 27 28 29 30 31 32 33 34 35 36 37 38 39 40 41 42 43 44 45 46 47 48 49 50
000
ASUS43 KJKL 211911
RWRJKL

EAST KENTUCKY HOURLY WEATHER ROUNDUP
NATIONAL WEATHER SERVICE JACKSON KY
300 PM EDT SUN SEP 21 2014

NOTE: "FAIR" INDICATES FEW OR NO CLOUDS BELOW 12,000 FEET WITH
NO SIGNIFICANT WEATHER AND/OR OBSTRUCTIONS TO VISIBILITY.

* THESE REPORTS ARE NOT UNDER NWS QUALITY CONTROL AND MAY NOT
  REPORT WEATHER SUCH AS PRECIPITATION AND FOG.

KYZ079-080-083-085-087-088-110-112-115-119-120-212000
...EASTERN KENTUCKY...

CITY           SKY/WX    TMP DP  RH WIND       PRES   REMARKS
JACKSON        CLOUDY    75  67  76 MISG      29.89F
LONDON         PTSUNNY   77  66  68 SW13      29.91F
SOMERSET*      PTSUNNY   77  64  65 W14       29.93F
MONTICELLO*    MOSUNNY   81  69  66 W9G17     29.94F
WILLIAMSBURG*  PTSUNNY   75  68  78 W7        29.92
MIDDLESBORO*   DRIZZLE   74  69  84 CALM      29.92F
HARLAN APT*    CLOUDY    70  70 100 MISG      29.92F
BLACK MTN*       N/A     61  61 100 S5          N/A
PIKEVILLE APT* CLOUDY    70  66  88 SW7       29.89F
BIG SANDY*     CLOUDY    75  68  78 W10       29.87F
MOREHEAD APT*  PTCLDY    81  63  54 W13G25    29.85F
$$

KYZ035-036-041-042-044-050-067-078-099-212000
...CENTRAL KENTUCKY...

CITY           SKY/WX    TMP DP  RH WIND       PRES   REMARKS
MT STERLING*   PTSUNNY   77  64  65 NW8G16    29.86F
FLEMING/MASON* MOSUNNY   77  59  53 W21G26    29.83F
DANVILLE*      MOSUNNY   81  66  61 W9        29.89F
RICHMOND*      CLOUDY    77  64  65 W8        29.87F
LEXINGTON      MOSUNNY   83  59  44 W21G29    29.86F
FRANKFORT      MOSUNNY   79  59  50 W14G23    29.86F
$$

KYZ091>093-OHZ055-061-077-WVZ005-015-034-035-042-212000
...SOUTHERN OHIO/WEST VIRGINIA...

CITY           SKY/WX    TMP DP  RH WIND       PRES   REMARKS
COVINGTON      SUNNY     77  45  32 W21G30    29.86S
COLUMBUS       MOSUNNY   80  42  25 W21G31    29.75F
DAYTON         MOSUNNY   76  45  33 W25G38    29.83S
WILMINGTON     SUNNY     76  44  32 W17G28    29.82S
HUNTINGTON     CLOUDY    77  66  68 SW9       29.80F
CHARLESTON     PTSUNNY   77  67  71 SW10G17   29.81F
PINEVILLE*     CLOUDY    74  70  86 MISG      29.92F
BECKLEY        CLOUDY    71  63  75 SW9G22    29.89F
BLUEFIELD      CLOUDY    73  62  68 W17       29.93F
$$

VAZ002-007-008-TNZ017-027-036-066-071-212000
...SOUTHWEST VIRGINIA/EAST TENNESSEE...

CITY           SKY/WX    TMP DP  RH WIND       PRES   REMARKS
WISE*          CLOUDY    70  61  73 SW14      29.97F
JONESVILLE*    MOCLDY    72  70  94 CALM      29.94F
ABINGDON*      CLOUDY    74  66  77 W10G17    29.95F
BRISTOL        CLOUDY    78  63  59 W12       29.92F
KNOXVILLE      CLOUDY    81  65  58 W13       29.93F
OAK RIDGE      CLOUDY    77  70  79 SW6       29.94F
CROSSVILLE     CLOUDY    74  65  73 SW6       29.99F
NASHVILLE      PTSUNNY   86  68  54 W9G20     29.94F
$$

...KEY TO REMARKS...
VSB - VISIBILITY IN MILES
WCI - WIND CHILL INDEX
HX  - HEAT INDEX

$$


USA.gov is the U.S. government's official web portal to all federal, state and local government web resources and services.